Tracking 20092 objects as of 14-Dec-2019
HD Live streaming from Space Station
objects crossing your sky now

FENGYUN 1C DEB

Track FENGYUN 1C DEB now!
10-day predictions


NORAD ID: 30341
Int'l Code: 1999-025ABC
Perigee: 815.0 km
Apogee: 913.8 km
Inclination: 99.2 °
Period: 102.1 minutes
Semi major axis: 7235 km
RCS: 0.0444 m2 (small)
Launch date: May 10, 1999
Source: People's Republic of China (PRC)
Launch site: Taiyaun Space Center, China (TSC)

Note: This is SATELLITE DEBRIS
aabbcc
Your satellite tracking list
Your tracking list is empty




NASA's NSSDC Master Catalog

Two Line Element Set (TLE):
1 30341U 99025ABC 19347.87139336  .00000686  00000-0  40164-3 0  9998
2 30341  99.2267 116.8376 0068310 133.7908  17.6924 14.10611380660757
Source of the keplerian elements: AFSPC